DELTA 1 DEB, 10728

Orbit data source: Space-Track

DELTA 1 DEB, 10728 is space debris in LEO originally from a launch on Wed, 09 Apr 1975 UTC launched from the Air Force Western Test Range (AFWTR). Debris objects in space refer to the collection of defunct objects orbiting the Earth. Examples of debris include non-operational satellites, rocket bodies, and fragments generated from explosions, collisions, or faulty payload assembly.

Loading next visibility...
Identifier
10728, 1975-027C
Orbit
LEO
Last TLE update
22 hours ago
Origin
Manufacturer
Unknown
Mission
Spacecraft
Bus & Motor
Unknown
Mass
Unknown
Launch date (UTC)
1975-04-09 (50 years ago)
Launch vehicle
Unknown
Launch site
Air Force Western Test Range (AFWTR)
Object type
Payload
Rocket body
Debris
Shape & HBR
Unknown
Radar Cross Section
Small (<0.1 m²)

Expand to show TLE details & history

TLE from 22 hours ago
0 DELTA 1 DEB
1 10728U 75027C   25189.80548934  .00000039  00000-0  90519-4 0  9995
2 10728 115.2073 323.8912 0067031 242.8545 116.5687 14.25067352606094
Epoch: 2025-07-08T19:19Z
TLE epoch observation values (Epoch: 2025-07-08T19:19:54.278Z)
Latitude
-0.00006°
Longitude
106.91987°
Altitude
832.02 km
Speed
7.426 km/s
True Right ascension
21h 35m 33s
True Declination
0° 00' 00"
Sunlit
Object was in full shadow at epoch
Visualization orbit readout
Latitude
-16.44177°
Longitude
117.40047°
Altitude
821.336 km
Speed
7.438 km/s
Apparent Right ascension
20h 18m 00s
Apparent Declination
-32° 45' 19"
Sunlit
Object is in full shadow
Visualization observer readout
Local Sidereal Time
05:19:35
Azimuth
267.017° W
Elevation
-53.747°
Doppler factor
1
Orbital elements
Apogee altitude
855.036 km
Perigee altitude
758.712 km
Semi-major axis
7,185.011 km
Eccentricity
0.0067
Inclination
115.2073°
RAAN
323.8912°
Arg. of periapsis
242.8545°
True anomaly
Unknown
Mean anomaly
116.5687°
Eccentric anomaly
Unknown
Mean motion
3.56371 °/min
Orbital period
101.02 mins
BSTAR
0.000090519
Loading maneuver chart data...
Loading SW <> Apogee altitude chart data...
Loading historical data...
Loading historical data...
Loading historical data...
Loading historical data...
Loading historical data...
Loading historical data...
Loading historical data...
Other satellites on launch #27 in the year 1975 (1975-04-09 UTC)

DELTA 1 DEB Visibility forecast

Observer location: undefined°, undefined°

Span
Click to sort rows by Start time (UTC) header in descending order
Start Az.
Max El. time (UTC)
Max El. Az.
Max El.
End time (UTC)
End Az.
10 mins2025-07-09 22:50:29.750Z39.998° NE2025-07-09 22:55:29.750Z132.291° SE43.439°2025-07-09 23:00:29.750Z208.37° SW
6 mins2025-07-10 00:30:29.750Z357.094° N2025-07-10 00:32:29.750Z328.246° NNW21.869°2025-07-10 00:36:29.750Z273.041° WNW
7 mins2025-07-10 06:54:29.750Z87.619° E2025-07-10 06:57:29.750Z38.619° NE26.587°2025-07-10 07:01:29.750Z346.035° N
8 mins2025-07-10 08:31:29.750Z167.311° S2025-07-10 08:35:29.750Z259.481° W38.565°2025-07-10 08:39:29.750Z313.352° NW
|